Home > Weather > Erlangen > Past weeks

Flag for Germany Weather for the Past 2 Weeks in Erlangen, Bavaria, Germany

Now
41 °F

Passing clouds.


Feels Like: 37 °F
Forecast: 40 / 47 °F
Wind: 6 mph from South

Location: Nuernberg

Current Time: Feb 8, 2016 at 1:59:42 AM

Latest Report: Feb 8, 2016 at 1:20 AM


Visibility: N/A

Pressure: 29.83 "Hg

Humidity: 81%

Dew point: 36 °F

Location of ErlangenLocation

Historic Weather in Erlangen — Graph

°F

Erlangen Temperature Yesterday

Maximum temperature yesterday: 52 °F (at 12:50 PM)
Minimum temperature yesterday: 30 °F (at 5:20 AM)
Average temperature yesterday: 41 °F

High & Low Weather Summary for the Past Weeks

 TemperatureHumidityPressure
High57 °F (Jan 27, 2:20 PM)100% (Jan 24, 3:50 AM)30.60 "Hg (Jan 24, 3:50 AM)
Low30 °F (Feb 7, 5:20 AM)50% (Feb 7, 1:20 PM)29.62 "Hg (Feb 7, 11:50 AM)
Average42 °F83%30.16 "Hg
* Reported Jan 24 12:50 AM — Feb 8 12:20 AM, Erlangen, Weather by CustomWeather, © 2016

Note: Actual official high and low records may vary slightly from our data, if they occured in-between our weather recording intervals... More about our weather records

Advertising

Erlangen Weather History for the Previous 24 Hours

 ConditionsComfort  
Time TempWeatherWind HumidityBarometerVisibility
12:20 AM
Mon, Feb 8
43 °FPartly cloudy.12 mph76%29.83 "HgN/A
11:20 PM
Sun, Feb 7
43 °FPartly cloudy.9 mph76%29.83 "HgN/A
10:50 PM43 °FPassing clouds.7 mph76%29.83 "HgN/A
10:20 PM43 °FPassing clouds.8 mph76%29.83 "HgN/A
9:50 PM43 °FPartly cloudy.6 mph76%29.83 "HgN/A
9:20 PM43 °FPartly cloudy.6 mph81%29.83 "HgN/A
8:50 PM43 °FPartly cloudy.7 mph81%29.83 "HgN/A
8:20 PM43 °FPassing clouds.9 mph81%29.80 "HgN/A
7:50 PM45 °FPartly cloudy.9 mph76%29.80 "HgN/A
7:20 PM45 °FPartly cloudy.13 mph76%29.80 "HgN/A
6:50 PM45 °FPassing clouds.13 mph76%29.77 "HgN/A
6:20 PM46 °FPassing clouds.12 mph76%29.74 "HgN/A
5:50 PM46 °FPassing clouds.12 mph76%29.74 "HgN/A
5:20 PM48 °FPartly sunny.14 mph71%29.71 "HgN/A
4:20 PM48 °FPassing clouds.7 mph71%29.68 "HgN/A
3:50 PM48 °FSunny.13 mph71%29.68 "Hg10 mi
3:20 PM50 °FSunny.10 mph62%29.65 "Hg10 mi
2:50 PM52 °FSunny.10 mph54%29.65 "Hg10 mi
2:20 PM52 °FPassing clouds.5 mph54%29.62 "HgN/A
1:50 PM52 °FPassing clouds.6 mph54%29.62 "HgN/A
1:20 PM52 °FPassing clouds.6 mph50%29.62 "HgN/A
12:50 PM52 °FPassing clouds.6 mph54%29.62 "HgN/A
12:20 PM48 °FSunny.8 mph62%29.62 "Hg10 mi
11:50 AM46 °FSunny.6 mph66%29.62 "Hg10 mi
11:20 AM45 °FSunny.7 mph76%29.65 "Hg10 mi
10:50 AM43 °FPassing clouds.3 mph76%29.65 "HgN/A
10:20 AM41 °FSunny.9 mph87%29.65 "Hg10 mi
9:50 AM41 °FSunny.7 mph81%29.65 "Hg10 mi
9:20 AM36 °FPassing clouds.3 mph93%29.68 "HgN/A
8:50 AM34 °FSunny.5 mph93%29.68 "Hg10 mi
8:20 AM34 °FSunny.3 mph93%29.68 "Hg10 mi
7:50 AM32 °FSunny.3 mph100%29.68 "Hg10 mi
7:20 AM32 °FPassing clouds.5 mph93%29.68 "HgN/A
6:50 AM32 °FClear.2 mph93%29.68 "Hg10 mi
6:20 AM32 °FClear.5 mph93%29.68 "Hg10 mi
5:50 AM32 °FFog.7 mph93%29.71 "HgN/A
5:20 AM30 °FFog.5 mph93%29.71 "HgN/A
4:50 AM32 °FFog.2 mph93%29.71 "HgN/A
4:20 AM36 °FFog.2 mph93%29.74 "HgN/A
3:50 AM32 °FFog.6 mph93%29.74 "HgN/A
3:20 AM34 °FFog.3 mph93%29.74 "HgN/A
2:20 AM36 °FFog.6 mph93%29.77 "HgN/A
1:50 AM32 °FFog.7 mph93%29.77 "HgN/A
1:20 AM36 °FFog.8 mph87%29.77 "HgN/A
Weather by CustomWeather, © 2016

See weather overviewHow to use our weather pages